Back to catalog

THORAD AGENA D DEB

AlivePO
NORAD 5507·DEBRIS·🇺🇸 United States

Launched Apr 8, 1970 from Vandenberg Space Force Base

Loading…

Next Passes (next 24 hours)

TLE

FreshSource: Space-Track

Epoch: Sep 14, 2026, 15:03 UTC

1 05507U 70025LL  26257.62757435  .00002593  00000-0  88581-3 0  9994
2 05507  99.2619 309.7880 0024932 168.0970 192.0808 14.37133310864632

Track THORAD AGENA D DEB in real time with AllMySat

Download on the App Store